TimeMST,TemperatureF,Dew PointF,Humidity,Sea Level PressureIn,VisibilityMPH,Wind Direction,Wind SpeedMPH,Gust SpeedMPH,PrecipitationIn,Events,Conditions,WindDirDegrees,DateUTC
12:08 AM,5.0,-0.4,78,30.05,3.0,North,15.0,-,0.00,Snow,Light Snow,10,2012-12-25 07:08:00
12:28 AM,5.0,-0.4,78,30.06,3.0,North,17.3,-,0.00,Snow,Light Snow,10,2012-12-25 07:28:00
12:41 AM,5.0,-0.4,78,30.06,3.0,North,13.8,-,0.00,Snow,Light Snow,10,2012-12-25 07:41:00
12:53 AM,3.9,-0.9,80,30.22,4.0,North,18.4,-,0.00,Snow,Light Snow,10,2012-12-25 07:53:00
1:22 AM,3.2,-2.2,78,30.08,7.0,North,11.5,-,0.00,,Overcast,10,2012-12-25 08:22:00
1:53 AM,3.9,-2.0,76,30.26,5.0,North,11.5,-,0.00,,Haze,10,2012-12-25 08:53:00
2:06 AM,3.2,-2.2,78,30.10,5.0,NNE,12.7,-,N/A,,Haze,20,2012-12-25 09:06:00
2:13 AM,3.2,-2.2,78,30.10,4.0,North,9.2,-,N/A,,Haze,10,2012-12-25 09:13:00
2:24 AM,3.2,-2.2,78,30.11,4.0,North,10.4,-,N/A,,Haze,10,2012-12-25 09:24:00
2:34 AM,3.2,-2.2,78,30.11,4.0,North,8.1,-,N/A,,Haze,10,2012-12-25 09:34:00
2:53 AM,3.0,-2.9,76,30.29,6.0,North,6.9,-,N/A,,Haze,10,2012-12-25 09:53:00
3:53 AM,3.0,-2.9,76,30.30,4.0,NE,3.5,-,0.00,Snow,Light Snow,40,2012-12-25 10:53:00
4:25 AM,3.2,-4.0,72,30.11,2.5,NE,3.5,-,0.00,Snow,Light Snow,50,2012-12-25 11:25:00
4:45 AM,1.4,-2.2,85,30.11,3.0,Calm,Calm,-,0.00,Snow,Light Snow,0,2012-12-25 11:45:00
4:53 AM,1.9,-2.9,80,30.33,4.0,Calm,Calm,-,0.00,Snow,Light Snow,0,2012-12-25 11:53:00
5:53 AM,1.9,-4.0,76,30.36,6.0,Calm,Calm,-,N/A,,Haze,0,2012-12-25 12:53:00
6:53 AM,1.9,-2.0,83,30.39,4.0,Calm,Calm,-,0.00,Snow,Light Snow,0,2012-12-25 13:53:00
7:35 AM,3.2,-2.2,78,30.14,2.5,WSW,6.9,-,0.00,Snow,Light Snow,240,2012-12-25 14:35:00
7:49 AM,3.2,-0.4,85,30.14,1.2,SW,5.8,-,0.01,Snow,Light Snow,230,2012-12-25 14:49:00
7:53 AM,3.9,-0.9,80,30.39,1.5,SW,6.9,-,0.01,Snow,Light Snow,220,2012-12-25 14:53:00
8:32 AM,5.0,-0.4,78,30.14,2.5,WSW,6.9,-,0.00,Snow,Light Snow,240,2012-12-25 15:32:00
8:53 AM,6.1,-0.0,76,30.39,3.0,SSW,8.1,-,0.00,Snow,Light Snow,210,2012-12-25 15:53:00
9:53 AM,8.1,1.0,73,30.39,3.0,SSW,15.0,-,0.00,,Haze,210,2012-12-25 16:53:00
10:53 AM,10.9,3.0,70,30.37,10.0,SSW,13.8,-,N/A,,Partly Cloudy,210,2012-12-25 17:53:00
11:53 AM,12.9,3.9,67,30.34,10.0,SW,15.0,-,N/A,,Clear,220,2012-12-25 18:53:00
12:53 PM,14.0,3.9,64,30.30,10.0,SSW,18.4,-,N/A,,Clear,210,2012-12-25 19:53:00
1:53 PM,16.0,5.0,62,30.26,10.0,SW,17.3,-,N/A,,Clear,220,2012-12-25 20:53:00
2:53 PM,17.1,6.1,62,30.25,10.0,SW,16.1,-,N/A,,Clear,220,2012-12-25 21:53:00
3:53 PM,16.0,6.1,65,30.26,10.0,SW,13.8,-,N/A,,Clear,220,2012-12-25 22:53:00
4:53 PM,12.0,3.9,70,30.28,10.0,SSW,8.1,-,N/A,,Clear,210,2012-12-25 23:53:00
5:53 PM,10.0,3.0,73,30.28,10.0,SW,10.4,-,N/A,,Clear,220,2012-12-26 00:53:00
6:53 PM,8.1,1.9,76,30.28,10.0,West,6.9,-,N/A,,Clear,260,2012-12-26 01:53:00
7:53 PM,7.0,1.0,77,30.25,10.0,SW,6.9,-,N/A,,Clear,230,2012-12-26 02:53:00
8:53 PM,12.9,5.0,71,30.19,10.0,SSW,15.0,-,N/A,,Clear,210,2012-12-26 03:53:00
9:53 PM,12.9,5.0,71,30.16,10.0,SW,11.5,-,N/A,,Clear,230,2012-12-26 04:53:00
10:53 PM,8.1,1.9,76,30.14,10.0,WSW,10.4,-,N/A,,Clear,240,2012-12-26 05:53:00
11:53 PM,10.0,3.9,76,30.10,10.0,WSW,8.1,-,N/A,,Clear,250,2012-12-26 06:53:00